Location: Camaret
(48.2753°N, 4.5961°W)
Time: 04:35:13
(UTC+00:00)

SAR-Lupe-4 - Pass Details

Date: 29 October 2020
Orbit: 481 x 484 km, 98.2° (Epoch: 25 November)

Event Time Altitude Azimuth Distance (km) Brightness Sun altitude
Rises 18:37:29 0° 10° (N) 2,557 7.1 -16.1°
Reaches altitude 10° 18:39:35 10° 7° (N) 1,672 6.2 -16.5°
Maximum altitude 18:43:06 58° 288° (WNW) 567 4.1 -17.0°
Drops below altitude 10° 18:46:36 10° 208° (SSW) 1,658 6.6 -17.6°
Sets 18:48:40 0° 205° (SSW) 2,532 7.6 -18.0°
